Time,TemperatureF,DewpointF,PressureIn,WindDirection,WindDirectionDegrees,WindSpeedMPH,WindSpeedGustMPH,Humidity,HourlyPrecipIn,Conditions,Clouds,dailyrainin,SoftwareType,DateUTC
2013-06-06 00:02:00,68.0,-99.9,29.85,NNE,23,0.0,1.0,-999,0.00,,,0.00,,2013-06-06 05:02:00,
2013-06-06 00:12:00,68.0,-99.9,29.85,NNE,23,0.0,1.0,-999,0.00,,,0.00,,2013-06-06 05:12:00,
2013-06-06 00:23:00,68.0,-99.9,29.85,NNE,23,5.0,6.0,-999,0.00,,,0.00,,2013-06-06 05:23:00,
2013-06-06 00:32:00,68.0,-99.9,29.84,NE,45,5.0,8.0,-999,0.00,,,0.00,,2013-06-06 05:32:00,
2013-06-06 00:42:00,68.0,-99.9,29.84,NE,45,5.0,8.0,-999,0.00,,,0.00,,2013-06-06 05:42:00,
2013-06-06 00:52:00,68.0,-99.9,29.84,NE,45,5.0,8.0,-999,0.00,,,0.00,,2013-06-06 05:52:00,
2013-06-06 01:02:00,68.0,-99.9,29.84,NE,45,8.0,12.0,-999,0.00,,,0.00,,2013-06-06 06:02:00,
2013-06-06 01:12:00,68.0,-99.9,29.84,NE,45,8.0,12.0,-999,0.00,,,0.00,,2013-06-06 06:12:00,
2013-06-06 01:22:00,68.0,-99.9,29.83,ENE,68,7.0,12.0,-999,0.00,,,0.00,,2013-06-06 06:22:00,
2013-06-06 01:33:00,68.0,-99.9,29.83,NE,45,8.0,12.0,-999,0.00,,,0.00,,2013-06-06 06:33:00,
2013-06-06 01:42:00,68.0,-99.9,29.83,NE,45,8.0,12.0,-999,0.00,,,0.00,,2013-06-06 06:42:00,
2013-06-06 01:52:00,68.0,-99.9,29.82,ENE,68,8.0,12.0,-999,0.00,,,0.00,,2013-06-06 06:52:00,
2013-06-06 02:02:00,67.0,-99.9,29.82,ENE,68,8.0,10.0,-999,0.00,,,0.00,,2013-06-06 07:02:00,
2013-06-06 02:12:00,67.0,-99.9,29.82,ENE,68,8.0,10.0,-999,0.00,,,0.00,,2013-06-06 07:12:00,
2013-06-06 02:22:00,67.0,-99.9,29.81,ENE,68,6.0,12.0,-999,0.00,,,0.00,,2013-06-06 07:22:00,
2013-06-06 02:33:00,67.0,-99.9,29.81,NE,45,7.0,13.0,-999,0.00,,,0.00,,2013-06-06 07:33:00,
2013-06-06 02:42:00,67.0,-99.9,29.81,NE,45,7.0,13.0,-999,0.00,,,0.00,,2013-06-06 07:42:00,
2013-06-06 02:52:00,66.0,-99.9,29.81,ENE,68,7.0,13.0,-999,0.00,,,0.00,,2013-06-06 07:52:00,
2013-06-06 03:02:00,66.0,-99.9,29.80,NE,45,7.0,12.0,-999,0.00,,,0.00,,2013-06-06 08:02:00,
2013-06-06 03:12:00,66.0,-99.9,29.80,NE,45,7.0,12.0,-999,0.00,,,0.00,,2013-06-06 08:12:00,
2013-06-06 03:22:00,65.0,-99.9,29.80,ENE,68,0.0,0.0,-999,0.00,,,0.00,,2013-06-06 08:22:00,
2013-06-06 03:32:00,65.0,-99.9,29.80,ENE,68,0.0,0.0,-999,0.00,,,0.00,,2013-06-06 08:32:00,
2013-06-06 03:42:00,65.0,-99.9,29.80,ENE,68,0.0,0.0,-999,0.00,,,0.00,,2013-06-06 08:42:00,
2013-06-06 03:52:00,65.0,-99.9,29.80,ENE,68,0.0,0.0,-999,0.00,,,0.00,,2013-06-06 08:52:00,
2013-06-06 04:02:00,65.0,-99.9,29.80,ENE,68,0.0,0.0,-999,0.00,,,0.00,,2013-06-06 09:02:00,
2013-06-06 04:12:00,65.0,-99.9,29.80,ENE,68,0.0,0.0,-999,0.00,,,0.00,,2013-06-06 09:12:00,
2013-06-06 04:22:00,64.0,-99.9,29.80,ENE,68,0.0,0.0,-999,0.00,,,0.00,,2013-06-06 09:22:00,
2013-06-06 04:33:00,64.0,-99.9,29.79,ENE,68,0.0,0.0,-999,0.00,,,0.00,,2013-06-06 09:33:00,
2013-06-06 04:43:00,64.0,-99.9,29.79,ENE,68,0.0,0.0,-999,0.00,,,0.00,,2013-06-06 09:43:00,
2013-06-06 04:53:00,63.0,-99.9,29.79,ENE,68,0.0,0.0,-999,0.00,,,0.00,,2013-06-06 09:53:00,
2013-06-06 05:03:00,62.0,-99.9,29.79,NNE,23,2.0,7.0,-999,0.00,,,0.00,,2013-06-06 10:03:00,
2013-06-06 05:12:00,62.0,-99.9,29.80,NNE,23,0.0,3.0,-999,0.00,,,0.00,,2013-06-06 10:12:00,
2013-06-06 05:23:00,62.0,-99.9,29.80,NNE,23,0.0,3.0,-999,0.00,,,0.00,,2013-06-06 10:23:00,
2013-06-06 05:33:00,62.0,-99.9,29.79,NE,45,1.0,6.0,-999,0.00,,,0.00,,2013-06-06 10:33:00,
2013-06-06 05:42:00,62.0,-99.9,29.80,NE,45,0.0,0.0,-999,0.00,,,0.00,,2013-06-06 10:42:00,
2013-06-06 05:53:00,62.0,-99.9,29.80,NE,45,0.0,0.0,-999,0.00,,,0.00,,2013-06-06 10:53:00,
2013-06-06 06:03:00,61.0,-99.9,29.80,NE,45,0.0,0.0,-999,0.00,,,0.00,,2013-06-06 11:03:00,
2013-06-06 06:12:00,61.0,-99.9,29.80,NE,45,0.0,0.0,-999,0.00,,,0.00,,2013-06-06 11:12:00,
2013-06-06 06:23:00,61.0,-99.9,29.80,NNE,23,5.0,7.0,-999,0.00,,,0.00,,2013-06-06 11:23:00,
2013-06-06 06:32:00,61.0,-99.9,29.79,NE,45,5.0,8.0,-999,0.00,,,0.00,,2013-06-06 11:32:00,
2013-06-06 06:42:00,61.0,-99.9,29.79,NE,45,5.0,8.0,-999,0.00,,,0.00,,2013-06-06 11:42:00,
2013-06-06 06:52:00,62.0,-99.9,29.80,NE,45,3.0,7.0,-999,0.00,,,0.00,,2013-06-06 11:52:00,
2013-06-06 07:03:00,63.0,-99.9,29.80,NNE,23,5.0,9.0,-999,0.00,,,0.00,,2013-06-06 12:03:00,
2013-06-06 07:13:00,63.0,-99.9,29.80,NNE,23,5.0,9.0,-999,0.00,,,0.00,,2013-06-06 12:13:00,
2013-06-06 07:23:00,63.0,-99.9,29.80,NE,45,5.0,9.0,-999,0.00,,,0.00,,2013-06-06 12:23:00,
2013-06-06 07:33:00,65.0,-99.9,29.80,NE,45,6.0,10.0,-999,0.00,,,0.00,,2013-06-06 12:33:00,
2013-06-06 07:43:00,66.0,-99.9,29.81,NE,45,7.0,9.0,-999,0.00,,,0.00,,2013-06-06 12:43:00,
2013-06-06 07:53:00,66.0,-99.9,29.81,NE,45,7.0,9.0,-999,0.00,,,0.00,,2013-06-06 12:53:00,
2013-06-06 08:03:00,66.0,-99.9,29.81,NE,45,6.0,10.0,-999,0.00,,,0.00,,2013-06-06 13:03:00,
2013-06-06 08:13:00,67.0,-99.9,29.81,NNE,23,3.0,9.0,-999,0.00,,,0.00,,2013-06-06 13:13:00,
2013-06-06 08:23:00,67.0,-99.9,29.81,NNE,23,3.0,9.0,-999,0.00,,,0.00,,2013-06-06 13:23:00,
2013-06-06 08:33:00,69.0,-99.9,29.81,NE,45,6.0,9.0,-999,0.00,,,0.00,,2013-06-06 13:33:00,
2013-06-06 08:43:00,69.0,-99.9,29.81,NE,45,6.0,9.0,-999,0.00,,,0.00,,2013-06-06 13:43:00,
2013-06-06 08:53:00,68.0,-99.9,29.81,NE,45,3.0,10.0,-999,0.00,,,0.00,,2013-06-06 13:53:00,
2013-06-06 09:03:00,68.0,-99.9,29.81,NNE,23,3.0,7.0,-999,0.00,,,0.00,,2013-06-06 14:03:00,
2013-06-06 09:13:00,68.0,-99.9,29.81,NNE,23,3.0,7.0,-999,0.00,,,0.00,,2013-06-06 14:13:00,
2013-06-06 09:23:00,69.0,-99.9,29.81,NE,45,5.0,8.0,-999,0.00,,,0.00,,2013-06-06 14:23:00,
2013-06-06 09:33:00,70.0,-99.9,29.81,NNE,23,5.0,8.0,-999,0.00,,,0.00,,2013-06-06 14:33:00,
2013-06-06 09:43:00,70.0,-99.9,29.81,NNE,23,5.0,8.0,-999,0.00,,,0.00,,2013-06-06 14:43:00,
2013-06-06 09:53:00,70.0,-99.9,29.80,NNE,23,3.0,9.0,-999,0.00,,,0.00,,2013-06-06 14:53:00,
2013-06-06 10:03:00,70.0,-99.9,29.81,NE,45,6.0,9.0,-999,0.00,,,0.00,,2013-06-06 15:03:00,
2013-06-06 10:13:00,70.0,-99.9,29.81,NE,45,6.0,9.0,-999,0.00,,,0.00,,2013-06-06 15:13:00,
2013-06-06 10:23:00,71.0,-99.9,29.81,NNE,23,3.0,8.0,-999,0.00,,,0.00,,2013-06-06 15:23:00,
2013-06-06 10:33:00,74.0,-99.9,29.80,NNE,23,2.0,9.0,-999,0.00,,,0.00,,2013-06-06 15:33:00,
2013-06-06 10:43:00,74.0,-99.9,29.80,NNE,23,2.0,9.0,-999,0.00,,,0.00,,2013-06-06 15:43:00,
2013-06-06 10:53:00,74.0,-99.9,29.81,NNE,23,2.0,6.0,-999,0.00,,,0.00,,2013-06-06 15:53:00,
2013-06-06 11:03:00,74.0,-99.9,29.80,NNE,23,2.0,9.0,-999,0.00,,,0.00,,2013-06-06 16:03:00,
2013-06-06 11:13:00,74.0,-99.9,29.80,NNE,23,2.0,9.0,-999,0.00,,,0.00,,2013-06-06 16:13:00,
2013-06-06 11:23:00,74.0,-99.9,29.81,NNE,23,5.0,8.0,-999,0.00,,,0.00,,2013-06-06 16:23:00,
2013-06-06 11:34:00,76.0,-99.9,29.82,ENE,68,6.0,8.0,-999,0.00,,,0.00,,2013-06-06 16:34:00,
2013-06-06 11:44:00,76.0,-99.9,29.82,ENE,68,6.0,8.0,-999,0.00,,,0.00,,2013-06-06 16:44:00,
2013-06-06 11:53:00,77.0,-99.9,29.81,ENE,68,3.0,9.0,-999,0.00,,,0.00,,2013-06-06 16:53:00,
2013-06-06 12:03:00,77.0,-99.9,29.81,NE,45,0.0,8.0,-999,0.00,,,0.00,,2013-06-06 17:03:00,
2013-06-06 12:13:00,80.0,-99.9,29.80,NE,45,6.0,12.0,-999,0.00,,,0.00,,2013-06-06 17:13:00,
2013-06-06 12:23:00,80.0,-99.9,29.80,NE,45,6.0,12.0,-999,0.00,,,0.00,,2013-06-06 17:23:00,
2013-06-06 12:33:00,80.0,-99.9,29.80,North,0,5.0,12.0,-999,0.00,,,0.00,,2013-06-06 17:33:00,
2013-06-06 12:43:00,80.0,-99.9,29.80,North,0,5.0,12.0,-999,0.00,,,0.00,,2013-06-06 17:43:00,
2013-06-06 12:53:00,81.0,-99.9,29.79,NE,45,6.0,10.0,-999,0.00,,,0.00,,2013-06-06 17:53:00,
2013-06-06 13:03:00,81.0,-99.9,29.78,NNE,23,6.0,13.0,-999,0.00,,,0.00,,2013-06-06 18:03:00,
2013-06-06 13:13:00,81.0,-99.9,29.78,NNE,23,6.0,13.0,-999,0.00,,,0.00,,2013-06-06 18:13:00,
2013-06-06 13:23:00,80.0,-99.9,29.78,North,0,5.0,12.0,-999,0.00,,,0.00,,2013-06-06 18:23:00,
2013-06-06 13:33:00,81.0,-99.9,29.78,North,0,1.0,13.0,-999,0.00,,,0.00,,2013-06-06 18:33:00,
2013-06-06 13:43:00,81.0,-99.9,29.78,North,0,1.0,13.0,-999,0.00,,,0.00,,2013-06-06 18:43:00,
2013-06-06 13:53:00,82.0,-99.9,29.78,NE,45,7.0,13.0,-999,0.00,,,0.00,,2013-06-06 18:53:00,
2013-06-06 14:03:00,83.0,-99.9,29.78,NNE,23,7.0,14.0,-999,0.00,,,0.00,,2013-06-06 19:03:00,
2013-06-06 14:13:00,82.0,-99.9,29.77,NE,45,7.0,14.0,-999,0.00,,,0.00,,2013-06-06 19:13:00,
2013-06-06 14:23:00,82.0,-99.9,29.77,NE,45,7.0,14.0,-999,0.00,,,0.00,,2013-06-06 19:23:00,
2013-06-06 14:34:00,85.0,-99.9,29.77,NNE,23,5.0,13.0,-999,0.00,,,0.00,,2013-06-06 19:34:00,
2013-06-06 14:53:00,84.0,-99.9,29.77,ENE,68,6.0,13.0,-999,0.00,,,0.00,,2013-06-06 19:53:00,
2013-06-06 15:03:00,82.0,-99.9,29.76,NE,45,8.0,10.0,-999,0.00,,,0.00,,2013-06-06 20:03:00,
2013-06-06 15:13:00,82.0,-99.9,29.76,NE,45,8.0,10.0,-999,0.00,,,0.00,,2013-06-06 20:13:00,
2013-06-06 15:23:00,87.0,-99.9,29.76,NNE,23,0.0,9.0,-999,0.00,,,0.00,,2013-06-06 20:23:00,
2013-06-06 15:33:00,89.0,-99.9,29.76,NE,45,0.0,9.0,-999,0.00,,,0.00,,2013-06-06 20:33:00,
2013-06-06 15:53:00,83.0,-99.9,29.77,North,0,2.0,8.0,-999,0.00,,,0.00,,2013-06-06 20:53:00,
2013-06-06 16:03:00,81.0,-99.9,29.76,ENE,68,0.0,10.0,-999,0.00,,,0.00,,2013-06-06 21:03:00,
2013-06-06 16:13:00,81.0,-99.9,29.76,ENE,68,0.0,10.0,-999,0.00,,,0.00,,2013-06-06 21:13:00,
2013-06-06 16:23:00,89.0,-99.9,29.76,NNE,23,2.0,6.0,-999,0.00,,,0.00,,2013-06-06 21:23:00,
2013-06-06 16:33:00,86.0,-99.9,29.75,North,0,6.0,12.0,-999,0.00,,,0.00,,2013-06-06 21:33:00,
2013-06-06 16:44:00,86.0,-99.9,29.75,North,0,6.0,12.0,-999,0.00,,,0.00,,2013-06-06 21:44:00,
2013-06-06 16:53:00,82.0,-99.9,29.75,ENE,68,5.0,8.0,-999,0.00,,,0.00,,2013-06-06 21:53:00,
2013-06-06 17:03:00,85.0,-99.9,29.75,North,0,2.0,9.0,-999,0.00,,,0.00,,2013-06-06 22:03:00,
2013-06-06 17:13:00,85.0,-99.9,29.75,North,0,2.0,9.0,-999,0.00,,,0.00,,2013-06-06 22:13:00,
2013-06-06 17:23:00,82.0,-99.9,29.76,NNE,23,6.0,9.0,-999,0.00,,,0.00,,2013-06-06 22:23:00,
2013-06-06 17:33:00,85.0,-99.9,29.76,NE,45,5.0,8.0,-999,0.00,,,0.00,,2013-06-06 22:33:00,
2013-06-06 17:43:00,85.0,-99.9,29.76,NE,45,5.0,8.0,-999,0.00,,,0.00,,2013-06-06 22:43:00,
2013-06-06 17:53:00,81.0,-99.9,29.76,NNE,23,3.0,10.0,-999,0.00,,,0.00,,2013-06-06 22:53:00,
2013-06-06 18:03:00,80.0,-99.9,29.76,NNE,23,6.0,9.0,-999,0.00,,,0.00,,2013-06-06 23:03:00,
2013-06-06 18:13:00,80.0,-99.9,29.76,NNE,23,6.0,9.0,-999,0.00,,,0.00,,2013-06-06 23:13:00,
2013-06-06 18:22:00,79.0,-99.9,29.75,NNE,23,5.0,12.0,-999,0.00,,,0.00,,2013-06-06 23:22:00,
2013-06-06 18:33:00,77.0,-99.9,29.75,NE,45,6.0,10.0,-999,0.00,,,0.00,,2013-06-06 23:33:00,
2013-06-06 18:43:00,77.0,-99.9,29.75,NE,45,6.0,10.0,-999,0.00,,,0.00,,2013-06-06 23:43:00,
2013-06-06 18:52:00,77.0,-99.9,29.75,NE,45,6.0,10.0,-999,0.00,,,0.00,,2013-06-06 23:52:00,
2013-06-06 19:02:00,77.0,-99.9,29.76,NNE,23,3.0,9.0,-999,0.00,,,0.00,,2013-06-07 00:02:00,
2013-06-06 19:13:00,77.0,-99.9,29.76,NNE,23,3.0,9.0,-999,0.00,,,0.00,,2013-06-07 00:13:00,
2013-06-06 19:22:00,70.0,-99.9,29.78,WNW,293,5.0,8.0,-999,0.03,,,0.02,,2013-06-07 00:22:00,
2013-06-06 19:32:00,67.0,-99.9,29.78,NNW,338,0.0,8.0,-999,0.14,,,0.13,,2013-06-07 00:32:00,
2013-06-06 19:52:00,69.0,-99.9,29.78,North,0,7.0,9.0,-999,0.25,,,0.24,,2013-06-07 00:52:00,
2013-06-06 20:03:00,68.0,-99.9,29.79,North,0,2.0,10.0,-999,0.29,,,0.29,,2013-06-07 01:03:00,
2013-06-06 20:22:00,70.0,-99.9,29.79,NNE,23,7.0,13.0,-999,0.27,,,0.30,,2013-06-07 01:22:00,
2013-06-06 20:33:00,68.0,-99.9,29.79,NNE,23,6.0,13.0,-999,0.16,,,0.30,,2013-06-07 01:33:00,
2013-06-06 20:42:00,68.0,-99.9,29.79,NNE,23,6.0,13.0,-999,0.16,,,0.30,,2013-06-07 01:42:00,
2013-06-06 20:53:00,67.0,-99.9,29.80,North,0,7.0,12.0,-999,0.05,,,0.30,,2013-06-07 01:53:00,
2013-06-06 21:02:00,67.0,-99.9,29.80,NNE,23,7.0,14.0,-999,0.01,,,0.30,,2013-06-07 02:02:00,
2013-06-06 21:12:00,67.0,-99.9,29.80,NNE,23,7.0,14.0,-999,0.01,,,0.30,,2013-06-07 02:12:00,
2013-06-06 21:22:00,66.0,-99.9,29.80,NNE,23,7.0,14.0,-999,0.00,,,0.30,,2013-06-07 02:22:00,
2013-06-06 21:32:00,66.0,-99.9,29.81,North,0,6.0,14.0,-999,0.00,,,0.30,,2013-06-07 02:32:00,
2013-06-06 21:42:00,66.0,-99.9,29.81,North,0,6.0,14.0,-999,0.00,,,0.30,,2013-06-07 02:42:00,
2013-06-06 21:52:00,66.0,-99.9,29.81,NNE,23,7.0,13.0,-999,0.00,,,0.30,,2013-06-07 02:52:00,
2013-06-06 22:02:00,65.0,-99.9,29.82,NNE,23,8.0,13.0,-999,0.00,,,0.30,,2013-06-07 03:02:00,
2013-06-06 22:12:00,65.0,-99.9,29.82,NNE,23,8.0,13.0,-999,0.00,,,0.30,,2013-06-07 03:12:00,
2013-06-06 22:22:00,65.0,-99.9,29.83,NNE,23,6.0,14.0,-999,0.00,,,0.30,,2013-06-07 03:22:00,
2013-06-06 22:33:00,64.0,-99.9,29.83,NNE,23,3.0,10.0,-999,0.00,,,0.30,,2013-06-07 03:33:00,
2013-06-06 22:44:00,64.0,-99.9,29.83,NNE,23,3.0,10.0,-999,0.00,,,0.30,,2013-06-07 03:44:00,
2013-06-06 22:53:00,63.0,-99.9,29.83,NNE,23,6.0,10.0,-999,0.00,,,0.30,,2013-06-07 03:53:00,
2013-06-06 23:03:00,63.0,-99.9,29.83,NNE,23,5.0,10.0,-999,0.00,,,0.30,,2013-06-07 04:03:00,
2013-06-06 23:13:00,63.0,-99.9,29.83,NNE,23,5.0,10.0,-999,0.00,,,0.30,,2013-06-07 04:13:00,
2013-06-06 23:23:00,62.0,-99.9,29.83,NNE,23,7.0,9.0,-999,0.00,,,0.30,,2013-06-07 04:23:00,
2013-06-06 23:33:00,62.0,-99.9,29.83,NNE,23,7.0,12.0,-999,0.00,,,0.30,,2013-06-07 04:33:00,
2013-06-06 23:42:00,62.0,-99.9,29.83,NNE,23,7.0,12.0,-999,0.00,,,0.30,,2013-06-07 04:42:00,
2013-06-06 23:54:00,62.0,-99.9,29.83,NNE,23,6.0,10.0,-999,0.00,,,0.30,,2013-06-07 04:54:00,